Regional Weather Roundup
Issued by NWS Wakefield, VA

Home | Current Version | Previous Version | Text Only | Print | Product List | Glossary On
Versions: 1 2 3 4 5 6 7 8 9 10 11 12 13 14 15 16 17 18 19 20 21 22 23 24 25 26 27 28 29 30 31 32 33 34 35 36 37 38 39 40 41 42 43 44 45 46 47 48 49 50
000
ASUS41 KAKQ 301410
RWRAKQ

REGIONAL WEATHER ROUNDUP
NATIONAL WEATHER SERVICE WAKEFIELD VA
900 AM EST FRI JAN 30 2015

Note: "fair" indicates few or no clouds below 12,000 feet with no
significant weather and/or obstructions to visibility. * = Denotes
station may not report precipitation (e.g., rain,snow,etc.),
thunder or fog.

VAZ042-051-052>054-056-301500-
NORTHERN VIRGINIA

CITY           SKY/WX    TMP DP  RH WIND       PRES   REMARKS
WASH NATIONAL  PTSUNNY   41  23  48 NW9       30.02R
DULLES         PTSUNNY   36  24  62 NW10      30.01R
FORT BELVOIR   CLOUDY    39  23  53 NW10      30.02R
QUANTICO       PTSUNNY   41  23  48 N10       30.03S
FREDERICKSBRG* CLOUDY    41  24  51 NW12G18   30.02R
STAFFORD*      PTSUNNY   39  23  53 NW10      30.05S
WARRENTON      PTSUNNY   39  29  67 NW6       30.01R
CULPEPER*      PTSUNNY   39  25  56 NW5       30.02S
MANASSAS*      CLOUDY    37  27  65 NW9       30.02R
LEESBURG*      CLOUDY    37  30  75 NW9       30.02R
WINCHESTER     CLOUDY    36  23  60 N5G18     30.02R
FRONT ROYAL*   CLOUDY    36  23  60 NW9G20    30.01R
LURAY*         CLOUDY    37  27  65 NW10G16   30.02R
$$

VAZ048-049-060>072-079>083-301500-
CENTRAL AND SOUTH CENTRAL VIRGINIA

CITY           SKY/WX    TMP DP  RH WIND       PRES   REMARKS
RICHMOND       PTSUNNY   43  27  53 N14       30.01R
CHESTERFIELD*  CLOUDY    43  19  39 NW12G17   30.02R
PETERSBURG*    MOSUNNY   44  27  51 NW13      30.01R
HANOVER        CLOUDY    40  26  57 NW6       30.03R
TAPPAHANNOCK*  PTSUNNY   40  20  43 NW10G18   30.01R
QUINTON*       CLOUDY    40  27  59 NW6       30.00R
CHARLOTTSVILLE CLOUDY    40  22  48 NW6       30.01R
GORDONSVILLE*  CLOUDY    39  23  53 NW5       30.01R
ORANGE*        PTSUNNY   39  25  56 W5        30.03R
LOUISA*        CLOUDY    41  25  52 NW7       30.00R
BUMPASS*       CLOUDY    39  23  52 NW3       30.01R
FARMVILLE*     CLOUDY    44  22  42 W5        30.02R
CREWE*         CLOUDY    42  21  44 NW13G22   30.02R
FORT PICKETT*  CLOUDY    41  23  49 NW16      30.02R
CHASE CITY*    PTSUNNY   42  26  52 NW10G18   30.05R
CLARKSVILLE*   FAIR      41  23  48 NW13G21   30.05R
SOUTH HILL*    SUNNY     41  23  48 NW9G17    30.08R
LAWRENCEVILLE* FAIR      42  26  53 NW8       30.00R
EMPORIA*       CLOUDY    41  28  60 W8        30.03R
$$

VAZ088>098-301500-
SOUTHEAST VIRGINIA

CITY           SKY/WX    TMP DP  RH WIND       PRES   REMARKS
NORFOLK        CLOUDY    39  34  82 CALM      29.97S
VIRGINIA BEACH CLOUDY    41  36  82 NW5       29.97S
NORFOLK NAVAL  CLOUDY    43  35  73 NW3       30.00R
WEST POINT*    CLOUDY    43  26  49 NW7       30.02R
SALUDA*        CLOUDY    39  29  66 NW8       29.98R
NEWPORT NEWS   CLOUDY    43  31  62 N10       30.00R
LANGLEY AFB    CLOUDY    40  33  77 N7        29.99R
FORT EUSTIS    CLOUDY    40  33  73 N6        29.98R
WILLIAMSBURG*    N/A     45  30  57 N9        30.01R
HR EXEC AP*    CLOUDY    37  34  87 CALM      30.01R
FRANKLIN*      CLOUDY    40  31  67 NW5       30.01R
WAKEFIELD      CLOUDY    43  28  55 CALM      30.00R
$$

VAZ020-022-025-037-045-301500-
WEST CENTRAL AND SOUTHWEST VIRGINIA

CITY           SKY/WX    TMP DP  RH WIND       PRES   REMARKS
STAUNTON*      CLOUDY    36  22  57 NW14      30.04R
WAYNESBORO*    CLOUDY    36  19  49 W10G20    30.00R
HOT SPRINGS VA CLOUDY    24  14  65 W28G36    29.88S WCI   7
LYNCHBURG      MOSUNNY   38  16  40 NW13G29   30.06R
DANVILLE       CLOUDY    42  20  41 NW16G24   30.08R
SOUTH BOSTON*  PTSUNNY   41  19  41 NW16G33   30.07R
MARTINSVILLE   CLOUDY    39  21  48 NW15G23   30.12R
ROANOKE        PTSUNNY   36  18  48 NW24G39   30.10R WCI  24
BLACKSBURG     LGT SNOW  28  25  86 W9G17     30.10R VSB 1
DUBLIN*        LGT SNOW  32  24  71 W18G28    30.10R WCI  20
MARION*        CLOUDY    30  19  64 W31G38    30.10F WCI  15
HILLSVILLE*    CLOUDY    29  17  62 NW22G33   30.06R WCI  15
RICHLANDS*     LGT SNOW  26  23  87 NW13      30.15R WCI  15
WISE*          LGT SNOW  28  23  80 NW9G21    30.20S
ABINGDON*      FLURRIES  32  24  72 NW13G20   30.20R WCI  22
$$

MDZ021>025-VAZ099-100-301500-
SOUTHERN MARYLAND AND THE DELMARVA PENINSULA

CITY           SKY/WX    TMP DP  RH WIND       PRES   REMARKS
PATUXENT RIVER MOSUNNY   40  22  48 NW23G30   29.98R
BAY BRIDGE APT   N/A     37  25  60 NW13      29.98S
LEONARDTOWN    PTSUNNY   39  21  48 NW7         N/A
DOVER          SUNNY     37  27  66 NW22G28   29.94R
GEORGETOWN     CLOUDY    39  24  55 N12G24    29.95R
EASTON         NOT AVBL
CAMBRIDGE      SUNNY     41  28  60 NW15      29.97R
SALISBURY      CLOUDY    41  28  60 NW17      29.95R
OCEAN CITY     CLOUDY    39  28  64 N14       29.94R
WALLOPS ISLAND PTSUNNY   39  29  67 N15G21    29.96R
ACCOMACK*      CLOUDY    37  32  81 NW7       29.97R
$$

NCZ012>017-030>032-301500-
NORTH CENTRAL AND EASTERN NORTH CAROLINA

CITY           SKY/WX    TMP DP  RH WIND       PRES   REMARKS
ROANOKE RAPIDS PTSUNNY   43  28  56 NW12G18   30.03R
RALEIGH        MOSUNNY   43  22  43 N10G28    30.06R
ELIZABETH CITY LGT RAIN  39  36  89 N9        29.99R
AHOSKIE*       CLOUDY    40  34  77 CALM      30.02R
EDENTON*       CLOUDY    40  38  93 NW5       29.99S
CURRITUCK*     RAIN      38  35  87 N7        30.00R
KILL DEVIL HLS LGT RAIN  40  40  97 NW8       29.97R
MANTEO         LGT RAIN  41  39  93 NW10G16   29.98R
CAPE HATTERAS  LGT RAIN  45  39  79 NW12G21   29.95R
TARBORO*       FAIR      45  32  60 NW9       30.04R
GOLDSBORO      PTSUNNY   44  37  76 NW15G21   30.03R
WASHINGTON     CLOUDY    41  37  84 NW6       30.01R
GREENVILLE     PTSUNNY   45  32  61 NW9G17    30.04R
NEW BERN       CLOUDY    47  36  65 N14G22    30.01R
WILMINGTON     PTSUNNY   48  38  68 N20G26    30.02R
$$

VAZ048-301500-
ELSEWHERE

CITY           SKY/WX    TMP DP  RH WIND       PRES   REMARKS
HARRISBURG PA  CLOUDY    34  25  69 NW17      29.95R WCI  23
BALTIMORE      PTSUNNY   37  23  56 W15       29.98R
ANNAPOLIS      MOSUNNY   38  24  57 NW12      29.98S
ANDREWS AFB    PTSUNNY   37  23  58 NW17G25   29.98R
PHILADELPHIA   CLOUDY    36  25  64 NW13      29.94R
HENDERSON NC   SUNNY     42  19  40 NW21G32   30.05R
GREENSBORO     PTSUNNY   39  19  44 NW20G44   30.08R
ROCKY MOUNT    SUNNY     44  27  51 NW16G23   30.04R
$$

VAZ100-301500-
MARINE

STATION/POSITION TIME  TEMP    WIND        PRES    WAVE   SWELL
                       AIR SEA DIR/SP/G            HT/PER HT/PER
                 (UTC) (F)     (DEG/KT/KT) (MB)    (FT/S) (FT/S)
BRANDYWINE LGT   1400   36 36  330/ 21/ 25 1013.2F
CAPE MAY NJ      1400   36 37              1012.7S
LEWES DE         1400   38 36  320/ 20/ 24 1013.5R
15NM E FENWICK I 1400   38 40              1012.7R   3/ 6
OCEAN-CITY-INLET 1400   39 38  350/ 12/ 14 1013.1F
WACHAPREAGUE VA  1400   37 36  270/  2/  3 1014.9R
THOMAS POINT MD  1400   38 36  320/ 12/ 14 1016.2R
GOOSES REEF MD   1400   39 36  VRB 17/ 23  1014.3R   2/ 3
COVE POINT MD    1400   37     350/ 23/ 27 1015.0R
SOLOMONS ISLAND  1400      37                N/A
BISHOPS HEAD MD  1400   39 34  330/ 23/ 28 1014.3R
PINEY POINT MD   1400          350/ 25/ 27   N/A
POTOMAC MD       1400   40 37  350/ 19/ 29 1014.4R   1
CAMBRIDGE MD     1400   38 35  310/ 13/ 19 1014.8R
LEWISETTA VA     1400   39 36  340/ 15/ 22 1015.5R
RAPPAHANNOCK LGT 1400          320/  9/ 10 1015.6R
STINGRAY PT      1400   40 38  340/ 14/ 16 1015.9R   1/ 2
YORK RVR RNG VA  1400   41     350/  9/ 11 1014.9R
YORKTOWN VA      1400   41 39  330/  9/ 13 1015.3R
JAMESTOWN VA     1400   40 40  350/  8/ 10   N/A     0
DOMINION TERM VA 1400   39     290/  4/  4 1015.3R
KIPTOPEKE VA     1400      43  340/  9/ 11   N/A
CHES BAY BRIDGE  1400   40 40  260/  7/  8 1014.7R
CAPE HENRY VA    1400   39     270/  6/  7 1014.0R
CHESAPEAKE LGHT  1300   40     340/ 12/ 15 1015.2R
WILLOUBY STN VA  1400   40     290/  3/  5 1015.8R
S CRANEY ISL VA  1400          310/  2/  3 1015.1R
CAPE HENRY BUOY  1400      41                N/A     2/11
1ST LANDING BUOY 1400   41 40  320/ 10/ 12 1014.9R   1
CAPE CHARLES BUO 1400      41                N/A     2/11   2/11
OFFSHORE WE BUOY 1400      43                N/A     3/ 4   2/11
64NM E OF VA BCH 1400   40 49  350/ 21/ 25 1013.9R   4/ 4   2/11
DUCK PIER NC     1400   41 44  340/ 19/ 21 1014.0R
44100 DUCK FRF   1400      44                N/A     3/10   2/12
44056 DUCK FRF   1400      43                N/A     2/11   2/11
OREGON INLET NC  1400   42 42  310/ 15/ 18 1014.5R
HATTERAS NC      1400   46 46  320/ 20/ 23 1014.5R


USA.gov is the U.S. government's official web portal to all federal, state and local government web resources and services.